Weather reports worldwide

Advertisment
Groningen Eelde, Netherlands (6280): temperature & dewpoint: 10.10.2019 05:00:00 - 16.10.2019 05:00:00 (CEST)Groningen Eelde, Netherlands (6280): temperature 5cm: 10.10.2019 05:00:00 - 16.10.2019 05:00:00 (CEST)Groningen Eelde, Netherlands (6280): wind speed & gusts: 10.10.2019 05:00:00 - 16.10.2019 05:00:00 (CEST)Groningen Eelde, Netherlands (6280): wind direction: 10.10.2019 05:00:00 - 16.10.2019 05:00:00 (CEST)Groningen Eelde, Netherlands (6280): reduced air pressure: 10.10.2019 05:00:00 - 16.10.2019 05:00:00 (CEST)Groningen Eelde, Netherlands (6280): visibility: 10.10.2019 05:00:00 - 16.10.2019 05:00:00 (CEST)Groningen Eelde, Netherlands (6280): precipitation: 10.10.2019 05:00:00 - 16.10.2019 05:00:00 (CEST)
Date & Time tt [°C] td [°C] tt 5cm [°C] ff [km/h] ff [kn] fx [km/h] fx [kn] dd ppp [hPa] vv [km] rr [mm]
16.10.2019 05:00:00 12,6 12,2 12,5 13 7 18 10 SW 1007,1 4,9 0,2
16.10.2019 04:00:00 12,9 12,4 12,7 11 6 18 10 SW 1007,2 4,0 0,0
16.10.2019 03:00:00 13,2 12,8 13,0 11 6 22 12 SW 1007,0 3,5 0,2
16.10.2019 02:00:00 13,4 12,8 13,1 13 7 22 12 SSW 1006,9 3,1 0,1
16.10.2019 01:00:00 13,4 12,9 13,1 9 5 18 10 SSW 1006,9 2,7 0,4
16.10.2019 00:00:00 13,4 13,0 13,1 9 5 14 8 SSW 1006,9 2,9 0,7
15.10.2019 23:00:00 13,7 13,3 13,5 9 5 14 8 SSW 1007,1 2,7 0,8
15.10.2019 22:00:00 14,1 13,6 13,9 8 4 14 8 SSW 1006,7 3,5 3,2
15.10.2019 21:00:00 14,2 13,7 13,9 4 2 11 6 WSW 1006,5 4,2 0,7
15.10.2019 20:00:00 14,6 13,9 14,1 5 3 14 8 SE 1006,3 10 0,2
15.10.2019 19:00:00 14,3 13,7 13,5 4 2 11 6 - 1005,9 10 0,1
15.10.2019 18:00:00 15,6 13,2 15,0 9 5 14 8 SSW 1005,6 10 0,0
15.10.2019 17:00:00 16,1 13,1 15,7 15 8 22 12 SSW 1005,4 10 0,0
15.10.2019 16:00:00 17,0 13,1 17,7 13 7 22 12 SSW 1005,5 10 0,0
15.10.2019 15:00:00 17,1 13,8 17,0 16 9 25 14 SW 1005,5 10 0,0
15.10.2019 14:00:00 17,3 13,5 17,3 16 9 25 14 SSW 1005,6 10 0,0
15.10.2019 13:00:00 16,6 13,5 - 16 9 25 14 SSW 1005,4 10 0,0
15.10.2019 12:00:00 16,0 14,1 15,6 15 8 25 14 SSW 1005,9 10 0,0
15.10.2019 11:00:00 15,5 13,7 15,5 13 7 18 10 SSW 1005,6 10 0,0
15.10.2019 10:00:00 15,4 13,4 15,4 9 5 14 8 S 1004,7 10 0,0
15.10.2019 09:00:00 13,2 12,5 12,1 8 4 11 6 S 1004,8 10 0,0
15.10.2019 08:00:00 11,3 10,8 9,4 5 3 11 6 SSW 1004,3 8 0,0
15.10.2019 07:00:00 13,2 12,0 12,1 9 5 18 10 SSW 1004,0 10 0,0
15.10.2019 06:00:00 15,0 13,0 13,5 13 7 18 10 S 1004,1 10 0,0
15.10.2019 05:00:00 14,7 13,0 13,2 11 6 18 10 S 1003,9 10 0,0
15.10.2019 04:00:00 14,0 13,0 12,2 8 4 14 8 SE 1004,4 8 0,0
15.10.2019 03:00:00 13,4 12,8 12,7 11 6 18 10 ESE 1004,5 6 0,0
15.10.2019 02:00:00 13,6 12,9 12,8 9 5 18 10 ESE 1004,8 7 0,0
15.10.2019 01:00:00 13,7 12,9 12,9 8 4 14 8 ESE 1005,8 9 0,0
15.10.2019 00:00:00 14,1 13,0 13,4 9 5 22 12 ESE 1006,5 10 0,0
14.10.2019 23:00:00 14,0 12,6 13,3 11 6 40 21 E 1006,3 10 0,0
14.10.2019 22:00:00 13,9 12,4 13,3 11 6 22 12 E 1007,3 10 0,0
14.10.2019 21:00:00 13,9 12,3 13,3 15 8 22 12 E 1008,1 10 0,0
14.10.2019 20:00:00 14,0 12,3 13,5 16 9 29 16 E 1008,4 10 0,0
14.10.2019 19:00:00 13,9 12,3 13,3 18 10 29 16 E 1008,7 10 0,0
14.10.2019 18:00:00 14,1 12,0 13,6 18 10 29 16 ENE 1009,6 10 0,0
14.10.2019 17:00:00 14,1 12,2 14,0 16 9 25 14 ENE 1010,3 10 0,3
14.10.2019 16:00:00 14,5 12,3 14,5 15 8 25 14 NE 1010,9 10 0,0
14.10.2019 15:00:00 14,9 11,4 14,6 9 5 18 10 E 1012,7 10 0,0
14.10.2019 14:00:00 14,8 11,3 15,3 11 6 18 10 ENE 1012,7 10 0,0
14.10.2019 13:00:00 14,5 11,3 15,4 15 8 18 10 ENE 1013,3 10 0,0
14.10.2019 12:00:00 13,8 11,6 14,3 5 3 11 6 SE 1014,2 10 0,0
14.10.2019 11:00:00 13,3 11,6 13,2 5 3 11 6 S 1014,4 10 0,0
14.10.2019 10:00:00 12,8 11,3 12,9 5 3 11 6 S 1013,9 10 0,0
14.10.2019 09:00:00 11,8 10,8 11,3 8 4 14 8 SSW 1014,0 10 0,0
14.10.2019 08:00:00 11,3 10,3 10,8 8 4 11 6 SSW 1012,9 10 0,0
14.10.2019 07:00:00 11,6 10,4 11,0 9 5 14 8 S 1012,8 10 0,0
14.10.2019 06:00:00 11,4 10,5 10,9 11 6 14 8 SW 1012,3 10 0,0
14.10.2019 05:00:00 11,0 10,1 10,4 11 6 18 10 SW 1011,7 10 0,0
14.10.2019 04:00:00 9,9 8,9 8,7 11 6 22 12 SW 1011,5 10 0,0
14.10.2019 03:00:00 12,5 10,9 11,6 18 10 29 16 SW 1010,9 10 0,0
14.10.2019 02:00:00 13,9 11,7 12,7 21 11 32 18 SW 1010,1 10 0,0
14.10.2019 01:00:00 14,4 12,3 13,5 24 13 43 23 WSW 1009,0 10 0,0
14.10.2019 00:00:00 15,2 12,6 14,5 31 17 50 27 WSW 1008,4 10 0,0
13.10.2019 23:00:00 15,7 13,3 15,1 28 15 47 25 SW 1007,2 10 0,0
13.10.2019 22:00:00 16,3 13,6 15,8 31 17 50 27 SW 1006,3 10 0,0
13.10.2019 21:00:00 17,8 13,7 17,2 39 21 58 31 WSW 1005,4 10 0,0
13.10.2019 20:00:00 18,9 16,0 18,3 21 11 47 25 SSW 1004,5 10 0,0
13.10.2019 19:00:00 19,5 15,9 18,6 22 12 32 18 SSW 1003,9 10 0,0
13.10.2019 18:00:00 19,7 15,8 18,9 22 12 40 21 S 1003,7 10 0,0
13.10.2019 17:00:00 19,9 16,3 19,2 21 11 40 21 S 1003,9 10 0,0
13.10.2019 16:00:00 19,4 17,2 19,2 13 7 25 14 SSE 1004,0 10 0,0
13.10.2019 15:00:00 18,9 17,0 18,9 13 7 25 14 S 1004,9 10 0,0
13.10.2019 14:00:00 17,7 16,7 17,7 15 8 22 12 SSE 1005,6 10 0,1
13.10.2019 13:00:00 16,6 15,9 16,4 11 6 22 12 S 1006,6 7 0,4
13.10.2019 12:00:00 16,1 15,1 16,1 13 7 22 12 S 1007,1 9 0,0
13.10.2019 11:00:00 14,0 13,6 14,0 9 5 14 8 SE 1007,3 3,3 0,0
13.10.2019 10:00:00 12,5 12,2 12,6 8 4 18 10 ESE 1007,7 1,9 0,0
13.10.2019 09:00:00 11,8 11,6 11,9 8 4 11 6 ENE 1007,9 1,6 0,0
13.10.2019 08:00:00 11,2 11,1 11,2 8 4 14 8 ESE 1007,9 1,2 0,0
13.10.2019 07:00:00 11,1 10,8 11,1 11 6 18 10 E 1008,5 2,7 0,1
13.10.2019 06:00:00 11,1 10,7 11,0 9 5 14 8 E 1008,7 7 0,0
13.10.2019 05:00:00 11,0 10,7 11,0 8 4 18 10 E 1009,0 4,1 0,0
13.10.2019 04:00:00 10,8 10,6 10,8 8 4 11 6 E 1009,4 6 0,8
13.10.2019 03:00:00 10,8 10,5 10,7 8 4 7 4 ENE 1009,8 5 0,1
13.10.2019 02:00:00 10,9 10,6 10,8 5 3 7 4 ESE 1010,4 9 0,1
13.10.2019 01:00:00 11,0 10,7 10,9 5 3 7 4 SSE 1010,7 7 0,1
13.10.2019 00:00:00 11,1 10,7 10,9 2 1 4 2 WNW 1010,8 6 1,0
12.10.2019 23:00:00 11,1 10,8 10,9 5 3 14 8 SSW 1010,9 7 0,5
12.10.2019 22:00:00 11,2 10,9 11,1 9 5 14 8 S 1010,4 6 0,5
12.10.2019 21:00:00 11,3 10,9 11,2 5 3 14 8 S 1010,1 10 0,1
12.10.2019 20:00:00 11,5 11,1 11,4 9 5 11 6 SSW 1010,1 10 0,4
12.10.2019 19:00:00 11,7 11,2 11,6 9 5 18 10 SSW 1010,0 10 0,2
12.10.2019 18:00:00 11,9 11,3 11,8 11 6 22 12 SSW 1009,7 10 0,2
12.10.2019 17:00:00 12,4 11,1 12,3 16 9 25 14 SSW 1009,9 10 0,0
12.10.2019 16:00:00 13,3 10,9 13,4 18 10 25 14 SSW 1009,6 10 0,0
12.10.2019 15:00:00 13,6 11,6 13,6 16 9 32 18 SW 1009,7 10 0,0
12.10.2019 14:00:00 13,7 11,4 13,7 21 11 29 16 SW 1009,0 10 0,0
12.10.2019 13:00:00 13,6 12,0 13,8 21 11 29 16 SW 1008,7 10 0,0
12.10.2019 12:00:00 12,5 11,3 12,4 18 10 25 14 SW 1008,3 10 0,0
12.10.2019 11:00:00 12,2 11,4 12,5 16 9 25 14 SW 1007,8 10 0,0
12.10.2019 10:00:00 11,5 10,7 11,6 11 6 22 12 WSW 1007,3 10 0,1
12.10.2019 09:00:00 10,4 10,0 10,4 8 4 14 8 W 1006,8 2,8 0,5
12.10.2019 08:00:00 10,5 9,7 10,4 11 6 18 10 WNW 1006,2 5 0,2
12.10.2019 07:00:00 10,8 10,6 10,8 8 4 14 8 SSW 1005,4 3,6 0,5
12.10.2019 06:00:00 10,8 10,4 10,7 8 4 18 10 WSW 1005,0 3,6 0,8
12.10.2019 05:00:00 11,0 10,5 10,9 11 6 22 12 SW 1005,1 5 0,2
12.10.2019 04:00:00 11,1 10,3 10,9 16 9 32 18 WSW 1004,6 4,0 0,3
12.10.2019 03:00:00 12,2 10,8 11,7 15 8 36 19 W 1004,8 9 1,6
12.10.2019 02:00:00 13,6 13,0 13,4 26 14 54 29 WSW 1004,3 4,3 4,8
12.10.2019 01:00:00 15,5 13,6 15,0 39 21 58 31 SW 1004,0 10 0,0
12.10.2019 00:00:00 14,9 13,6 14,4 37 20 50 27 SW 1004,0 10 0,6
11.10.2019 23:00:00 14,9 13,3 14,4 37 20 54 29 SW 1004,0 10 0,0
11.10.2019 22:00:00 14,6 13,1 14,2 39 21 54 29 SW 1004,1 7 0,0
11.10.2019 21:00:00 14,1 13,0 13,8 37 20 54 29 SW 1003,9 3,7 0,1
11.10.2019 20:00:00 13,9 12,9 13,6 34 18 50 27 SSW 1004,3 7 0,2
11.10.2019 19:00:00 13,7 13,0 13,5 34 18 50 27 SSW 1004,8 3,6 0,4
11.10.2019 18:00:00 14,0 12,8 13,7 35 19 54 29 SSW 1005,2 7 0,1
11.10.2019 17:00:00 14,0 12,9 13,8 37 20 58 31 SSW 1005,4 10 0,1
11.10.2019 16:00:00 14,4 12,9 14,3 39 21 61 33 SSW 1005,9 10 0,0
11.10.2019 15:00:00 14,7 12,9 14,4 39 21 58 31 SSW 1006,2 10 0,2
11.10.2019 14:00:00 14,6 12,8 14,4 34 18 54 29 SSW 1006,8 10 0,0
11.10.2019 13:00:00 14,2 12,6 14,0 37 20 58 31 SSW 1007,1 10 0,1
11.10.2019 12:00:00 13,9 12,6 13,7 31 17 47 25 SSW 1007,6 9 0,2
11.10.2019 11:00:00 14,0 12,6 13,8 34 18 50 27 SW 1007,9 10 0,9
11.10.2019 10:00:00 13,4 12,2 13,2 28 15 43 23 SSW 1008,0 10 0,8
11.10.2019 09:00:00 12,9 12,0 12,7 28 15 43 23 SSW 1007,9 7 0,5
11.10.2019 08:00:00 12,8 11,7 12,4 29 16 50 27 SSW 1007,6 10 0,7
11.10.2019 07:00:00 13,1 11,8 12,8 35 19 54 29 SW 1007,9 10 0,1
11.10.2019 06:00:00 12,6 11,4 12,3 37 20 54 29 SW 1007,8 5 0,7
11.10.2019 05:00:00 12,7 10,6 12,3 31 17 50 27 SSW 1007,8 10 0,1
11.10.2019 04:00:00 13,3 9,9 12,8 31 17 50 27 SSW 1008,4 10 0,0
11.10.2019 03:00:00 13,0 10,0 12,4 29 16 50 27 SSW 1009,0 10 0,0
11.10.2019 02:00:00 13,0 10,0 12,4 29 16 43 23 SSW 1009,3 10 0,0
11.10.2019 01:00:00 12,9 10,0 12,3 29 16 43 23 SW 1009,9 10 0,0
11.10.2019 00:00:00 12,3 9,9 11,6 26 14 40 21 SSW 1010,2 10 0,0
10.10.2019 23:00:00 11,9 9,2 11,3 24 13 32 18 SSW 1010,4 10 0,0
10.10.2019 22:00:00 11,3 9,0 10,5 16 9 25 14 SSW 1011,0 10 0,0
10.10.2019 21:00:00 11,0 8,8 10,4 15 8 25 14 SSW 1011,4 10 0,0
10.10.2019 20:00:00 11,1 8,3 10,2 13 7 22 12 SW 1011,3 10 0,0
10.10.2019 19:00:00 10,8 8,7 10,0 15 8 40 21 SW 1011,0 10 0,0
10.10.2019 18:00:00 12,4 9,2 11,7 16 9 36 19 WSW 1010,5 10 0,0
10.10.2019 17:00:00 13,9 9,0 13,6 21 11 47 25 W 1010,1 10 0,0
10.10.2019 16:00:00 13,9 7,7 13,6 34 18 54 29 WSW 1009,9 10 0,0
10.10.2019 15:00:00 14,5 8,7 13,3 28 15 47 25 WSW 1009,3 10 0,0
10.10.2019 14:00:00 14,8 10,4 14,8 26 14 36 19 WSW 1008,9 10 0,1
10.10.2019 13:00:00 10,9 8,9 10,7 16 9 43 23 WNW 1008,8 10 0,6
10.10.2019 12:00:00 13,5 10,1 13,1 26 14 43 23 SW 1007,8 10 0,0
10.10.2019 11:00:00 12,6 10,0 12,9 28 15 36 19 SW 1007,4 10 0,0
10.10.2019 10:00:00 11,0 9,6 10,9 21 11 29 16 SW 1006,8 10 0,0
10.10.2019 09:00:00 9,6 8,7 9,1 21 11 29 16 SSW 1006,0 10 0,3
10.10.2019 08:00:00 9,4 8,7 9,0 21 11 36 19 SSW 1005,5 6 0,0
10.10.2019 07:00:00 9,2 8,6 8,9 22 12 29 16 SW 1005,0 8 0,0
10.10.2019 06:00:00 8,4 7,7 7,9 18 10 29 16 SSW 1004,5 10 0,0
10.10.2019 05:00:00 8,8 7,9 8,2 18 10 29 16 SSW 1004,2 10 0,0

tt = temperature
td = dewpoint
tt 5cm = temperature 5cm
ff = wind speed
fx = gusts
dd = wind direction
ppp = reduced air pressure
vv = visibility
rr = precipitation

Next stations